Flag for Pakistan Weather past 2 weeks in Rawalpindi, Pakistan

Now
93 °F

Scattered clouds.


Feels Like: 105 °F
Forecast: 78 / 94 °F
Wind: 9 mph from South

Location: Islamabad Airport

Current Time: Aug 4, 2015 at 2:54:40 PM

Latest Report: Aug 4, 2015 at 2:00 PM


Visibility: 2 mi

Pressure: 29.62 "Hg (28.01 "Hg at 501m altitude)

Humidity: 56%

Dew point: 75 °F

Location of RawalpindiLocation

Historic Weather in Rawalpindi — Graph

°F

Rawalpindi temperature yesterday

Maximum temperature yesterday: 93 °F (at 2:00 PM)
Minimum temperature yesterday: 77 °F (at 2:00 AM)
Average temperature yesterday: 87 °F

Past Weeks' High & Low Weather Summary

 TemperatureHumidityPressure
High95 °F (Jul 20, 2:00 PM)100% (Jul 21, 9:00 AM)30.01 "Hg (Jul 21, 9:00 AM)
Low68 °F (Jul 23, 1:00 PM)47% (Jul 27, 3:00 PM)29.50 "Hg (Jul 29, 4:00 PM)
Average84 °F75%29.65 "Hg
* Reported Jul 20 2:00 PM — Aug 4 2:00 PM, Rawalpindi, Weather by CustomWeather, © 2015

Note: Actual official high and low records may vary slightly from our data, if they occured in-between our weather recording intervals... More about our weather records

Advertising

Rawalpindi weather history for previous 24 hours

 ConditionsComfort  
Time TempWeatherWind HumidityBarometerVisibility
2:00 PM
Tue, Aug 4
93 °FScattered clouds.9 mph56%29.62 "Hg2 mi
1:30 PM93 °FScattered clouds.9 mph59%29.65 "Hg2 mi
12:30 PM93 °FScattered clouds.9 mph59%29.68 "Hg2 mi
12:00 PM93 °FScattered clouds.9 mph59%29.68 "Hg2 mi
11:30 AM91 °FScattered clouds.7 mph63%29.68 "Hg2 mi
11:00 AM91 °FScattered clouds.7 mph63%29.68 "Hg2 mi
10:30 AM90 °FHaze.7 mph63%29.68 "Hg2 mi
10:00 AM90 °FHaze.7 mph63%29.68 "Hg2 mi
9:30 AM88 °FHaze.5 mph62%29.68 "Hg3 mi
9:00 AM88 °FHaze.5 mph62%29.68 "Hg3 mi
8:30 AM84 °FScattered clouds.5 mph74%29.68 "Hg3 mi
8:00 AM84 °FScattered clouds.5 mph74%29.68 "Hg3 mi
7:30 AM81 °FHaze.5 mph74%29.68 "Hg3 mi
7:00 AM81 °FHaze.5 mph74%29.68 "Hg3 mi
6:30 AM79 °FFog.5 mph79%29.68 "Hg3 mi
6:00 AM79 °FFog.5 mph79%29.68 "Hg3 mi
5:00 AM77 °FFog.7 mph83%29.65 "Hg3 mi
4:00 AM79 °FPassing clouds.5 mph84%29.68 "Hg4 mi
3:00 AM81 °FPassing clouds.5 mph79%29.68 "Hg4 mi
1:00 AM81 °FPassing clouds.5 mph79%29.71 "Hg4 mi
12:00 AM81 °FPassing clouds.5 mph74%29.71 "Hg4 mi
10:00 PM
Mon, Aug 3
82 °FPartly cloudy.9 mph70%29.71 "Hg4 mi
9:00 PM84 °FPassing clouds.5 mph62%29.71 "Hg4 mi
8:00 PM88 °FPassing clouds.7 mph55%29.68 "Hg4 mi
7:00 PM90 °FPassing clouds.7 mph55%29.68 "Hg4 mi
6:30 PM91 °FScattered clouds.12 mph56%29.65 "Hg4 mi
6:00 PM91 °FScattered clouds.12 mph56%29.65 "Hg4 mi
5:00 PM93 °FScattered clouds.14 mph56%29.68 "Hg4 mi
4:30 PM93 °FScattered clouds.14 mph56%29.68 "Hg4 mi
4:00 PM93 °FPassing clouds.14 mph56%29.68 "Hg4 mi
3:30 PM93 °FScattered clouds.14 mph63%29.68 "Hg4 mi
3:00 PM93 °FScattered clouds.14 mph63%29.68 "Hg4 mi
2:00 PM93 °FScattered clouds.12 mph63%29.71 "Hg4 mi
Weather by CustomWeather, © 2015

See weather overviewHow to use our weather pages